• In Uzbekistan
  • List of Countries
  • For 7 days
  • Water Temperature
  • Weather Map
  • Weather Widgets
  • user-avatar
    Login

    Hourly Weather Kabul

    Today, 2 April, Thursday

    Time Temperature Precipitation Wind Pressure Humidity
    00:00 +6°C° 0 mm 2 mps 608 mmHg 56%
    01:00 +6°C° 0 mm 2 mps 608 mmHg 56%
    02:00 +5°C° 0 mm 2 mps 608 mmHg 55%
    03:00 +5°C° 0 mm 2 mps 608 mmHg 55%
    04:00 +4°C° 0 mm 2 mps 608 mmHg 54%
    05:00 +4°C° 0 mm 2 mps 607 mmHg 53%
    06:00 +5°C° 0 mm 2 mps 608 mmHg 49%
    07:00 +6°C° 0 mm 2 mps 609 mmHg 44%
    08:00 +7°C° 0 mm 2 mps 609 mmHg 40%
    09:00 +8°C° 0 mm 2 mps 609 mmHg 38%
    10:00 +9°C° 0 mm 2 mps 609 mmHg 35%
    11:00 +10°C° 0 mm 2 mps 609 mmHg 33%
    12:00 +12°C° 0 mm 2 mps 609 mmHg 30%
    13:00 +13°C° 0 mm 2 mps 609 mmHg 28%
    14:00 +14°C° 0 mm 2 mps 609 mmHg 26%
    15:00 +14°C° 0 mm 2 mps 609 mmHg 24%
    16:00 +15°C° 0 mm 2 mps 609 mmHg 23%
    17:00 +15°C° 0 mm 2 mps 609 mmHg 22%
    18:00 +14°C° 0 mm 2 mps 609 mmHg 26%
    19:00 +13°C° 0 mm 1 mps 609 mmHg 31%
    20:00 +12°C° 0 mm 1 mps 609 mmHg 35%
    21:00 +11°C° 0 mm 1 mps 609 mmHg 36%
    22:00 +11°C° 0 mm 1 mps 609 mmHg 36%
    23:00 +10°C° 0 mm 1 mps 609 mmHg 37%

    Tomorrow, 3 April, Friday

    Time Temperature Precipitation Wind Pressure Humidity
    00:00 +10°C° 0 mm 1 mps 609 mmHg 37%
    01:00 +9°C° 0 mm 1 mps 608 mmHg 38%
    02:00 +9°C° 0 mm 1 mps 608 mmHg 38%
    03:00 +9°C° 0 mm 1 mps 608 mmHg 38%
    04:00 +8°C° 0 mm 1 mps 608 mmHg 39%
    05:00 +8°C° 0 mm 1 mps 608 mmHg 39%
    06:00 +9°C° 0 mm 1 mps 608 mmHg 36%
    07:00 +10°C° 0 mm 1 mps 609 mmHg 33%
    08:00 +11°C° 0 mm 1 mps 610 mmHg 30%
    09:00 +12°C° 0 mm 1 mps 610 mmHg 29%
    10:00 +13°C° 0 mm 1 mps 610 mmHg 28%
    11:00 +15°C° 0 mm 1 mps 611 mmHg 28%
    12:00 +16°C° 0 mm 1 mps 611 mmHg 27%
    13:00 +16°C° 0 mm 1 mps 611 mmHg 26%
    14:00 +18°C° 0 mm 1 mps 611 mmHg 25%
    15:00 +19°C° 0 mm 1 mps 611 mmHg 25%
    16:00 +19°C° 0 mm 1 mps 611 mmHg 24%
    17:00 +19°C° 0 mm 1 mps 610 mmHg 24%
    18:00 +18°C° 0 mm 1 mps 610 mmHg 28%
    19:00 +15°C° 0 mm 1 mps 610 mmHg 33%
    20:00 +14°C° 0 mm 1 mps 610 mmHg 37%
    21:00 +14°C° 0 mm 1 mps 610 mmHg 38%
    22:00 +13°C° 0 mm 1 mps 610 mmHg 39%
    23:00 +12°C° 0 mm 1 mps 610 mmHg 40%

    Day after tomorrow, 4 April, Saturday

    Time Temperature Precipitation Wind Pressure Humidity
    00:00 +12°C° 0 mm 1 mps 610 mmHg 41%
    01:00 +11°C° 0 mm 1 mps 609 mmHg 42%
    02:00 +11°C° 0 mm 1 mps 609 mmHg 43%
    03:00 +10°C° 0 mm 1 mps 609 mmHg 43%
    04:00 +10°C° 0 mm 1 mps 608 mmHg 44%
    05:00 +9°C° 0 mm 1 mps 608 mmHg 45%
    06:00 +9°C° 0 mm 0 mps 608 mmHg 40%
    07:00 +10°C° 0 mm 0 mps 609 mmHg 35%
    08:00 +11°C° 0 mm 0 mps 610 mmHg 31%
    09:00 +12°C° 0 mm 0 mps 610 mmHg 29%
    10:00 +14°C° 0 mm 0 mps 610 mmHg 28%
    11:00 +16°C° 0 mm 1 mps 610 mmHg 27%
    12:00 +18°C° 0 mm 1 mps 610 mmHg 26%
    13:00 +18°C° 0 mm 1 mps 610 mmHg 25%
    14:00 +19°C° 0 mm 1 mps 610 mmHg 24%
    15:00 +18°C° 0 mm 2 mps 610 mmHg 25%
    16:00 +18°C° 0 mm 2 mps 610 mmHg 26%
    17:00 +18°C° 0 mm 3 mps 610 mmHg 27%
    18:00 +17°C° 0 mm 3 mps 610 mmHg 33%
    19:00 +16°C° 0 mm 3 mps 609 mmHg 39%
    20:00 +15°C° 0 mm 2 mps 609 mmHg 45%
    21:00 +14°C° 0.5 mm 2 mps 609 mmHg 52%
    22:00 +13°C° 0.5 mm 2 mps 609 mmHg 59%
    23:00 +12°C° 0.5 mm 2 mps 609 mmHg 67%

    5 April, Sunday

    Time Temperature Precipitation Wind Pressure Humidity
    00:00 +10°C° 0.5 mm 2 mps 609 mmHg 68%
    01:00 +10°C° 0.5 mm 2 mps 609 mmHg 69%
    02:00 +9°C° 0.5 mm 2 mps 608 mmHg 70%
    03:00 +9°C° 0.4 mm 2 mps 608 mmHg 72%
    04:00 +9°C° 0.4 mm 3 mps 608 mmHg 74%
    05:00 +8°C° 0.4 mm 3 mps 608 mmHg 76%
    06:00 +8°C° 1.2 mm 2 mps 608 mmHg 80%
    07:00 +8°C° 1.2 mm 2 mps 608 mmHg 83%
    08:00 +7°C° 1.2 mm 2 mps 608 mmHg 86%
    09:00 +8°C° 0.5 mm 2 mps 608 mmHg 82%
    10:00 +8°C° 0.5 mm 2 mps 609 mmHg 79%
    11:00 +10°C° 0.5 mm 1 mps 609 mmHg 75%
    12:00 +11°C° 0.1 mm 1 mps 609 mmHg 68%
    13:00 +12°C° 0.1 mm 1 mps 609 mmHg 62%
    14:00 +13°C° 0.1 mm 1 mps 610 mmHg 55%
    15:00 +13°C° 0 mm 1 mps 610 mmHg 53%
    16:00 +14°C° 0 mm 1 mps 610 mmHg 50%
    17:00 +14°C° 0 mm 1 mps 609 mmHg 48%
    18:00 +13°C° 0 mm 1 mps 610 mmHg 51%
    19:00 +13°C° 0 mm 1 mps 610 mmHg 55%
    20:00 +12°C° 0 mm 1 mps 610 mmHg 58%
    21:00 +12°C° 0 mm 1 mps 610 mmHg 60%
    22:00 +11°C° 0 mm 0 mps 610 mmHg 63%
    23:00 +10°C° 0 mm 0 mps 610 mmHg 65%

    6 April, Monday

    Time Temperature Precipitation Wind Pressure Humidity
    00:00 +10°C° 0 mm 0 mps 610 mmHg 65%
    01:00 +9°C° 0 mm 0 mps 610 mmHg 66%
    02:00 +9°C° 0 mm 0 mps 609 mmHg 66%
    03:00 +9°C° 0 mm 0 mps 609 mmHg 66%
    04:00 +8°C° 0 mm 0 mps 608 mmHg 66%
    05:00 +8°C° 0 mm 0 mps 608 mmHg 67%
    06:00 +9°C° 0 mm 0 mps 609 mmHg 62%
    07:00 +10°C° 0 mm 0 mps 609 mmHg 57%
    08:00 +11°C° 0 mm 0 mps 610 mmHg 53%
    09:00 +12°C° 0 mm 1 mps 610 mmHg 52%
    10:00 +13°C° 0 mm 1 mps 610 mmHg 52%
    11:00 +13°C° 0 mm 1 mps 610 mmHg 51%
    12:00 +13°C° 0.1 mm 1 mps 610 mmHg 53%
    13:00 +14°C° 0.1 mm 2 mps 609 mmHg 55%
    14:00 +14°C° 0.1 mm 2 mps 609 mmHg 56%
    15:00 +14°C° 0.1 mm 2 mps 609 mmHg 56%
    16:00 +14°C° 0.1 mm 2 mps 609 mmHg 56%
    17:00 +13°C° 0.1 mm 3 mps 609 mmHg 56%
    18:00 +13°C° 0 mm 2 mps 609 mmHg 59%
    19:00 +13°C° 0 mm 1 mps 609 mmHg 61%
    20:00 +12°C° 0 mm 1 mps 610 mmHg 64%
    21:00 +12°C° 0 mm 1 mps 609 mmHg 65%
    22:00 +11°C° 0 mm 1 mps 609 mmHg 67%
    23:00 +11°C° 0 mm 1 mps 609 mmHg 68%

    7 April, Tuesday

    Time Temperature Precipitation Wind Pressure Humidity
    00:00 +11°C° 0 mm 1 mps 608 mmHg 68%
    01:00 +10°C° 0 mm 1 mps 608 mmHg 68%
    02:00 +10°C° 0 mm 1 mps 608 mmHg 68%
    03:00 +10°C° 0 mm 1 mps 607 mmHg 69%
    04:00 +10°C° 0 mm 1 mps 607 mmHg 69%
    05:00 +9°C° 0 mm 1 mps 607 mmHg 70%
    06:00 +10°C° 0 mm 1 mps 608 mmHg 65%
    07:00 +11°C° 0 mm 1 mps 608 mmHg 61%
    08:00 +12°C° 0 mm 1 mps 609 mmHg 57%
    09:00 +13°C° 0 mm 1 mps 609 mmHg 52%
    10:00 +15°C° 0 mm 1 mps 609 mmHg 47%
    11:00 +16°C° 0 mm 1 mps 610 mmHg 43%
    12:00 +18°C° 0 mm 1 mps 610 mmHg 39%
    13:00 +19°C° 0 mm 1 mps 610 mmHg 35%
    14:00 +20°C° 0 mm 1 mps 610 mmHg 31%
    15:00 +20°C° 0 mm 1 mps 609 mmHg 30%
    16:00 +20°C° 0 mm 1 mps 609 mmHg 29%
    17:00 +20°C° 0 mm 1 mps 609 mmHg 28%
    18:00 +19°C° 0 mm 1 mps 609 mmHg 34%
    19:00 +18°C° 0 mm 1 mps 609 mmHg 40%
    20:00 +15°C° 0 mm 0 mps 609 mmHg 46%
    21:00 +15°C° 0 mm 0 mps 609 mmHg 46%
    22:00 +15°C° 0 mm 1 mps 609 mmHg 47%
    23:00 +15°C° 0 mm 1 mps 609 mmHg 47%
    Show more